Location: *
(42.0175°N, 9.4056°E)
Time: 09:41:00
(UTC+00:00)

USA 186 - Pass Details

Date: 25 August 2019
Orbit: 264 x 450 km, 96.9° (Epoch: 21 September)

Event Time Altitude Azimuth Distance (km) Brightness Sun altitude
Exits shadow 18:41:59 - 155° (SSE) 1,699 4.4 -6.8°
Reaches altitude 10° 18:43:08 10° 150° (SSE) 1,203 3.6 -7.0°
Maximum altitude 18:45:35 45° 75° (ENE) 456 1.6 -7.4°
Drops below altitude 10° 18:48:15 10° 0° (N) 1,304 4.5 -7.9°
Sets 18:50:17 0° 355° (N) 2,191 5.8 -8.2°
